Time,TemperatureF,DewpointF,PressureIn,WindDirection,WindDirectionDegrees,WindSpeedMPH,WindSpeedGustMPH,Humidity,HourlyPrecipIn,Conditions,Clouds,dailyrainin,SoftwareType,DateUTC
2013-01-20 00:04:00,44.0,27.0,-100.00,NNW,345,10.0,16.0,51,0.00,,,-99.99,,2013-01-20 05:04:00,
2013-01-20 00:12:00,44.0,28.0,-100.00,North,0,8.0,16.0,51,0.00,,,-99.99,,2013-01-20 05:12:00,
2013-01-20 00:22:00,44.0,28.0,-100.00,North,355,9.0,17.0,52,0.00,,,-99.99,,2013-01-20 05:22:00,
2013-01-20 00:33:00,44.0,28.0,-100.00,North,0,12.0,16.0,53,0.00,,,-99.99,,2013-01-20 05:33:00,
2013-01-20 00:42:00,44.0,28.0,-100.00,North,0,9.0,16.0,53,0.00,,,-99.99,,2013-01-20 05:42:00,
2013-01-20 00:53:00,44.0,28.0,-100.00,North,0,7.0,16.0,54,0.00,,,-99.99,,2013-01-20 05:53:00,
2013-01-20 01:02:00,44.0,28.0,-100.00,North,0,10.0,19.0,54,0.00,,,-99.99,,2013-01-20 06:02:00,
2013-01-20 01:12:00,43.0,28.0,-100.00,North,0,9.0,16.0,55,0.00,,,-99.99,,2013-01-20 06:12:00,
2013-01-20 01:22:00,44.0,28.0,-100.00,North,0,9.0,17.0,55,0.00,,,-99.99,,2013-01-20 06:22:00,
2013-01-20 01:33:00,43.0,29.0,-100.00,North,350,7.0,16.0,56,0.00,,,-99.99,,2013-01-20 06:33:00,
2013-01-20 01:42:00,43.0,29.0,-100.00,NNW,345,9.0,14.0,56,0.00,,,-99.99,,2013-01-20 06:42:00,
2013-01-20 01:52:00,43.0,29.0,-100.00,NNW,345,9.0,17.0,56,0.00,,,-99.99,,2013-01-20 06:52:00,
2013-01-20 02:02:00,43.0,29.0,-100.00,North,0,9.0,19.0,56,0.00,,,-99.99,,2013-01-20 07:02:00,
2013-01-20 02:12:00,44.0,29.0,-100.00,North,355,9.0,19.0,56,0.00,,,-99.99,,2013-01-20 07:12:00,
2013-01-20 02:22:00,43.0,29.0,-100.00,NNW,340,10.0,18.0,56,0.00,,,-99.99,,2013-01-20 07:22:00,
2013-01-20 02:32:00,43.0,29.0,-100.00,North,355,9.0,16.0,57,0.00,,,-99.99,,2013-01-20 07:32:00,
2013-01-20 02:42:00,43.0,29.0,-100.00,North,0,11.0,17.0,57,0.00,,,-99.99,,2013-01-20 07:42:00,
2013-01-20 02:52:00,43.0,29.0,-100.00,North,355,9.0,16.0,58,0.00,,,-99.99,,2013-01-20 07:52:00,
2013-01-20 03:02:00,43.0,29.0,-100.00,North,0,7.0,19.0,58,0.00,,,-99.99,,2013-01-20 08:02:00,
2013-01-20 03:12:00,43.0,29.0,-100.00,North,0,11.0,18.0,58,0.00,,,-99.99,,2013-01-20 08:12:00,
2013-01-20 03:22:00,43.0,30.0,-100.00,North,0,9.0,19.0,59,0.00,,,-99.99,,2013-01-20 08:22:00,
2013-01-20 03:32:00,43.0,30.0,-100.00,North,10,10.0,19.0,59,0.00,,,-99.99,,2013-01-20 08:32:00,
2013-01-20 03:42:00,43.0,30.0,-100.00,North,0,7.0,16.0,59,0.00,,,-99.99,,2013-01-20 08:42:00,
2013-01-20 03:52:00,43.0,30.0,-100.00,North,0,9.0,17.0,59,0.00,,,-99.99,,2013-01-20 08:52:00,
2013-01-20 04:02:00,43.0,30.0,-100.00,North,0,7.0,15.0,60,0.00,,,-99.99,,2013-01-20 09:02:00,
2013-01-20 04:12:00,43.0,31.0,-100.00,NNE,15,10.0,21.0,60,0.00,,,-99.99,,2013-01-20 09:12:00,
2013-01-20 04:22:00,43.0,31.0,-100.00,NNE,20,15.0,22.0,61,0.00,,,-99.99,,2013-01-20 09:22:00,
2013-01-20 04:33:00,44.0,31.0,-100.00,ENE,60,15.0,28.0,59,0.00,,,-99.99,,2013-01-20 09:33:00,
2013-01-20 04:42:00,44.0,31.0,-100.00,NE,45,15.0,24.0,59,0.00,,,-99.99,,2013-01-20 09:42:00,
2013-01-20 04:52:00,43.0,30.0,-100.00,NE,55,17.0,30.0,59,0.00,,,-99.99,,2013-01-20 09:52:00,
2013-01-20 05:02:00,43.0,29.0,-100.00,NE,55,17.0,26.0,57,0.00,,,-99.99,,2013-01-20 10:02:00,
2013-01-20 05:12:00,43.0,28.0,-100.00,NE,55,17.0,29.0,56,0.00,,,-99.99,,2013-01-20 10:12:00,
2013-01-20 05:22:00,42.0,27.0,-100.00,NE,45,11.0,22.0,55,0.00,,,-99.99,,2013-01-20 10:22:00,
2013-01-20 05:32:00,42.0,27.0,-100.00,NE,45,13.0,21.0,56,0.00,,,-99.99,,2013-01-20 10:32:00,
2013-01-20 05:42:00,41.0,24.0,-100.00,NNE,30,15.0,22.0,49,0.00,,,-99.99,,2013-01-20 10:42:00,
2013-01-20 05:52:00,41.0,23.0,-100.00,NE,45,16.0,30.0,48,0.00,,,-99.99,,2013-01-20 10:52:00,
2013-01-20 06:03:00,40.0,20.0,-100.00,ENE,60,16.0,26.0,44,0.00,,,-99.99,,2013-01-20 11:03:00,
2013-01-20 06:12:00,39.0,20.0,-100.00,NE,50,9.0,24.0,46,0.00,,,-99.99,,2013-01-20 11:12:00,
2013-01-20 06:22:00,38.0,18.0,-100.00,NE,40,18.0,33.0,42,0.00,,,-99.99,,2013-01-20 11:22:00,
2013-01-20 06:33:00,38.0,16.0,-100.00,NE,45,17.0,35.0,41,0.00,,,-99.99,,2013-01-20 11:33:00,
2013-01-20 06:43:00,37.0,13.0,-100.00,ENE,70,19.0,27.0,36,0.00,,,-99.99,,2013-01-20 11:43:00,
2013-01-20 06:53:00,36.0,9.0,-100.00,NE,50,18.0,26.0,32,0.00,,,-99.99,,2013-01-20 11:53:00,
2013-01-20 07:03:00,35.0,10.0,-100.00,ENE,70,17.0,27.0,35,0.00,,,-99.99,,2013-01-20 12:03:00,
2013-01-20 07:12:00,34.0,11.0,-100.00,ENE,65,13.0,22.0,39,0.00,,,-99.99,,2013-01-20 12:12:00,
2013-01-20 07:23:00,33.0,13.0,-100.00,ENE,60,14.0,29.0,41,0.00,,,-99.99,,2013-01-20 12:23:00,
2013-01-20 07:33:00,33.0,13.0,-100.00,NE,40,13.0,25.0,43,0.00,,,-99.99,,2013-01-20 12:33:00,
2013-01-20 07:43:00,33.0,14.0,-100.00,NE,55,11.0,22.0,45,0.00,,,-99.99,,2013-01-20 12:43:00,
2013-01-20 07:52:00,32.0,14.0,-100.00,NE,45,15.0,22.0,47,0.00,,,-99.99,,2013-01-20 12:52:00,
2013-01-20 08:03:00,31.0,14.0,-100.00,NE,55,10.0,22.0,48,0.00,,,-99.99,,2013-01-20 13:03:00,
2013-01-20 08:12:00,31.0,14.0,-100.00,ENE,60,4.0,17.0,50,0.00,,,-99.99,,2013-01-20 13:12:00,
2013-01-20 08:23:00,30.0,14.0,-100.00,ENE,75,10.0,16.0,50,0.00,,,-99.99,,2013-01-20 13:23:00,
2013-01-20 08:33:00,30.0,12.0,-100.00,East,90,12.0,21.0,48,0.00,,,-99.99,,2013-01-20 13:33:00,
2013-01-20 08:43:00,30.0,13.0,-100.00,East,80,17.0,25.0,49,0.00,,,-99.99,,2013-01-20 13:43:00,
2013-01-20 08:52:00,29.0,13.0,-100.00,East,80,15.0,28.0,49,0.00,,,-99.99,,2013-01-20 13:52:00,
2013-01-20 09:02:00,29.0,13.0,-100.00,East,90,9.0,19.0,49,0.00,,,-99.99,,2013-01-20 14:02:00,
2013-01-20 09:12:00,29.0,13.0,-100.00,NE,55,12.0,22.0,50,0.00,,,-99.99,,2013-01-20 14:12:00,
2013-01-20 09:23:00,29.0,12.0,-100.00,NE,45,12.0,26.0,49,0.00,,,-99.99,,2013-01-20 14:23:00,
2013-01-20 09:33:00,29.0,13.0,-100.00,ENE,70,15.0,24.0,49,0.00,,,-99.99,,2013-01-20 14:33:00,
2013-01-20 09:43:00,29.0,11.0,-100.00,East,95,14.0,21.0,46,0.00,,,-99.99,,2013-01-20 14:43:00,
2013-01-20 09:53:00,29.0,12.0,-100.00,ENE,75,12.0,19.0,47,0.00,,,-99.99,,2013-01-20 14:53:00,
2013-01-20 10:03:00,29.0,12.0,-100.00,NE,50,10.0,18.0,48,0.00,,,-99.99,,2013-01-20 15:03:00,
2013-01-20 10:12:00,29.0,12.0,-100.00,ENE,75,11.0,19.0,47,0.00,,,-99.99,,2013-01-20 15:12:00,
2013-01-20 10:23:00,29.0,11.0,-100.00,ENE,65,15.0,21.0,46,0.00,,,-99.99,,2013-01-20 15:23:00,
2013-01-20 10:33:00,29.0,11.0,-100.00,East,100,11.0,19.0,46,0.00,,,-99.99,,2013-01-20 15:33:00,
2013-01-20 10:42:00,29.0,11.0,-100.00,ENE,65,13.0,22.0,46,0.00,,,-99.99,,2013-01-20 15:42:00,
2013-01-20 10:53:00,29.0,11.0,-100.00,NE,50,14.0,21.0,45,0.00,,,-99.99,,2013-01-20 15:53:00,
2013-01-20 11:03:00,29.0,11.0,-100.00,East,80,11.0,19.0,45,0.00,,,-99.99,,2013-01-20 16:03:00,
2013-01-20 11:12:00,29.0,11.0,-100.00,NE,45,10.0,19.0,45,0.00,,,-99.99,,2013-01-20 16:12:00,
2013-01-20 11:23:00,29.0,11.0,-100.00,East,85,15.0,19.0,45,0.00,,,-99.99,,2013-01-20 16:23:00,
2013-01-20 11:33:00,29.0,10.0,-100.00,ENE,75,12.0,19.0,44,0.00,,,-99.99,,2013-01-20 16:33:00,
2013-01-20 11:43:00,30.0,11.0,-100.00,ENE,70,11.0,16.0,45,0.00,,,-99.99,,2013-01-20 16:43:00,
2013-01-20 11:52:00,29.0,11.0,-100.00,East,95,12.0,21.0,45,0.00,,,-99.99,,2013-01-20 16:52:00,
2013-01-20 12:03:00,29.0,11.0,-100.00,East,80,7.0,17.0,46,0.00,,,-99.99,,2013-01-20 17:03:00,
2013-01-20 12:13:00,30.0,11.0,-100.00,NE,55,12.0,20.0,45,0.00,,,-99.99,,2013-01-20 17:13:00,
2013-01-20 12:22:00,29.0,11.0,-100.00,ENE,60,9.0,19.0,45,0.00,,,-99.99,,2013-01-20 17:22:00,
2013-01-20 12:33:00,30.0,11.0,-100.00,ENE,65,11.0,19.0,45,0.00,,,-99.99,,2013-01-20 17:33:00,
2013-01-20 12:42:00,29.0,11.0,-100.00,East,80,9.0,21.0,47,0.00,,,-99.99,,2013-01-20 17:42:00,
2013-01-20 12:52:00,29.0,11.0,-100.00,ESE,110,9.0,14.0,46,0.00,,,-99.99,,2013-01-20 17:52:00,
2013-01-20 13:03:00,29.0,11.0,-100.00,East,80,11.0,16.0,45,0.00,,,-99.99,,2013-01-20 18:03:00,
2013-01-20 13:13:00,29.0,11.0,-100.00,East,95,16.0,23.0,45,0.00,,,-99.99,,2013-01-20 18:13:00,
2013-01-20 13:23:00,30.0,11.0,-100.00,East,90,9.0,14.0,45,0.00,,,-99.99,,2013-01-20 18:23:00,
2013-01-20 13:33:00,30.0,12.0,-100.00,NE,40,9.0,16.0,46,0.00,,,-99.99,,2013-01-20 18:33:00,
2013-01-20 13:43:00,30.0,11.0,-100.00,East,85,10.0,19.0,45,0.00,,,-99.99,,2013-01-20 18:43:00,
2013-01-20 13:53:00,30.0,11.0,-100.00,ENE,75,11.0,14.0,44,0.00,,,-99.99,,2013-01-20 18:53:00,
2013-01-20 14:03:00,31.0,12.0,-100.00,NE,40,10.0,16.0,44,0.00,,,-99.99,,2013-01-20 19:03:00,
2013-01-20 14:12:00,31.0,11.0,-100.00,East,80,10.0,14.0,42,0.00,,,-99.99,,2013-01-20 19:12:00,
2013-01-20 14:22:00,31.0,11.0,-100.00,ENE,75,4.0,16.0,43,0.00,,,-99.99,,2013-01-20 19:22:00,
2013-01-20 14:33:00,32.0,12.0,-100.00,NE,45,9.0,16.0,44,0.00,,,-99.99,,2013-01-20 19:33:00,
2013-01-20 14:43:00,31.0,12.0,-100.00,ENE,70,7.0,17.0,45,0.00,,,-99.99,,2013-01-20 19:43:00,
2013-01-20 14:52:00,30.0,11.0,-100.00,NE,40,9.0,16.0,43,0.00,,,-99.99,,2013-01-20 19:52:00,
2013-01-20 15:03:00,31.0,12.0,-100.00,NE,45,9.0,15.0,44,0.00,,,-99.99,,2013-01-20 20:03:00,
2013-01-20 15:12:00,30.0,11.0,-100.00,NNE,30,10.0,14.0,45,0.00,,,-99.99,,2013-01-20 20:12:00,
2013-01-20 15:23:00,30.0,11.0,-100.00,East,80,8.0,16.0,44,0.00,,,-99.99,,2013-01-20 20:23:00,
2013-01-20 15:33:00,30.0,11.0,-100.00,NE,45,9.0,16.0,44,0.00,,,-99.99,,2013-01-20 20:33:00,
2013-01-20 15:42:00,31.0,12.0,-100.00,NE,55,9.0,14.0,44,0.00,,,-99.99,,2013-01-20 20:42:00,
2013-01-20 15:53:00,30.0,12.0,-100.00,NE,35,7.0,12.0,45,0.00,,,-99.99,,2013-01-20 20:53:00,
2013-01-20 16:04:00,31.0,11.0,-100.00,NE,45,7.0,14.0,42,0.00,,,-99.99,,2013-01-20 21:04:00,
2013-01-20 16:13:00,31.0,11.0,-100.00,ENE,60,8.0,14.0,42,0.00,,,-99.99,,2013-01-20 21:13:00,
2013-01-20 16:23:00,30.0,11.0,-100.00,ENE,60,10.0,16.0,44,0.00,,,-99.99,,2013-01-20 21:23:00,
2013-01-20 16:33:00,30.0,11.0,-100.00,ENE,60,9.0,16.0,43,0.00,,,-99.99,,2013-01-20 21:33:00,
2013-01-20 16:43:00,30.0,10.0,-100.00,East,85,11.0,15.0,43,0.00,,,-99.99,,2013-01-20 21:43:00,
2013-01-20 16:53:00,29.0,10.0,-100.00,NE,40,6.0,12.0,44,0.00,,,-99.99,,2013-01-20 21:53:00,
2013-01-20 17:03:00,29.0,11.0,-100.00,ENE,60,9.0,16.0,45,0.00,,,-99.99,,2013-01-20 22:03:00,
2013-01-20 17:13:00,29.0,12.0,-100.00,ENE,70,5.0,11.0,47,0.00,,,-99.99,,2013-01-20 22:13:00,
2013-01-20 17:23:00,29.0,11.0,-100.00,East,80,8.0,12.0,45,0.00,,,-99.99,,2013-01-20 22:23:00,
2013-01-20 17:33:00,29.0,11.0,-100.00,ENE,70,8.0,12.0,45,0.00,,,-99.99,,2013-01-20 22:33:00,
2013-01-20 17:43:00,29.0,11.0,-100.00,ENE,60,6.0,11.0,46,0.00,,,-99.99,,2013-01-20 22:43:00,
2013-01-20 17:52:00,29.0,11.0,-100.00,East,80,5.0,8.0,47,0.00,,,-99.99,,2013-01-20 22:52:00,
2013-01-20 18:03:00,29.0,11.0,-100.00,ENE,65,7.0,11.0,46,0.00,,,-99.99,,2013-01-20 23:03:00,
2013-01-20 18:13:00,29.0,10.0,-100.00,ENE,70,8.0,12.0,46,0.00,,,-99.99,,2013-01-20 23:13:00,
2013-01-20 18:23:00,28.0,11.0,-100.00,ENE,65,9.0,14.0,47,0.00,,,-99.99,,2013-01-20 23:23:00,
2013-01-20 18:33:00,28.0,11.0,-100.00,East,100,9.0,13.0,48,0.00,,,-99.99,,2013-01-20 23:33:00,
2013-01-20 18:43:00,27.0,11.0,-100.00,East,80,6.0,12.0,50,0.00,,,-99.99,,2013-01-20 23:43:00,
2013-01-20 18:53:00,27.0,11.0,-100.00,ENE,75,7.0,11.0,51,0.00,,,-99.99,,2013-01-20 23:53:00,
2013-01-20 19:03:00,27.0,12.0,-100.00,ENE,75,4.0,11.0,53,0.00,,,-99.99,,2013-01-21 00:03:00,
2013-01-20 19:13:00,26.0,11.0,-100.00,East,90,4.0,9.0,53,0.00,,,-99.99,,2013-01-21 00:13:00,
2013-01-20 19:23:00,26.0,11.0,-100.00,East,90,3.0,6.0,53,0.00,,,-99.99,,2013-01-21 00:23:00,
2013-01-20 19:33:00,26.0,11.0,-100.00,East,95,4.0,7.0,52,0.00,,,-99.99,,2013-01-21 00:33:00,
2013-01-20 19:43:00,26.0,11.0,-100.00,East,90,4.0,6.0,52,0.00,,,-99.99,,2013-01-21 00:43:00,
2013-01-20 19:53:00,26.0,11.0,-100.00,East,85,4.0,7.0,53,0.00,,,-99.99,,2013-01-21 00:53:00,
2013-01-20 20:03:00,25.0,11.0,-100.00,East,90,4.0,8.0,54,0.00,,,-99.99,,2013-01-21 01:03:00,
2013-01-20 20:13:00,25.0,11.0,-100.00,ESE,105,5.0,9.0,55,0.00,,,-99.99,,2013-01-21 01:13:00,
2013-01-20 20:23:00,25.0,11.0,-100.00,East,85,5.0,9.0,55,0.00,,,-99.99,,2013-01-21 01:23:00,
2013-01-20 20:33:00,25.0,11.0,-100.00,East,100,4.0,7.0,55,0.00,,,-99.99,,2013-01-21 01:33:00,
2013-01-20 20:43:00,25.0,11.0,-100.00,East,100,4.0,7.0,56,0.00,,,-99.99,,2013-01-21 01:43:00,
2013-01-20 20:53:00,25.0,11.0,-100.00,East,95,4.0,9.0,56,0.00,,,-99.99,,2013-01-21 01:53:00,
2013-01-20 21:03:00,24.0,11.0,-100.00,East,100,5.0,9.0,57,0.00,,,-99.99,,2013-01-21 02:03:00,
2013-01-20 21:12:00,24.0,11.0,-100.00,ESE,110,3.0,9.0,57,0.00,,,-99.99,,2013-01-21 02:12:00,
2013-01-20 21:23:00,24.0,11.0,-100.00,East,95,6.0,9.0,57,0.00,,,-99.99,,2013-01-21 02:23:00,
2013-01-20 21:33:00,24.0,11.0,-100.00,East,95,4.0,9.0,57,0.00,,,-99.99,,2013-01-21 02:33:00,
2013-01-20 21:43:00,24.0,11.0,-100.00,East,80,6.0,9.0,56,0.00,,,-99.99,,2013-01-21 02:43:00,
2013-01-20 21:53:00,24.0,11.0,-100.00,ENE,65,6.0,9.0,56,0.00,,,-99.99,,2013-01-21 02:53:00,
2013-01-20 22:03:00,24.0,11.0,-100.00,ENE,65,4.0,9.0,56,0.00,,,-99.99,,2013-01-21 03:03:00,
2013-01-20 22:13:00,24.0,11.0,-100.00,ENE,70,6.0,9.0,55,0.00,,,-99.99,,2013-01-21 03:13:00,
2013-01-20 22:23:00,25.0,11.0,-100.00,ENE,65,4.0,8.0,55,0.00,,,-99.99,,2013-01-21 03:23:00,
2013-01-20 22:33:00,25.0,11.0,-100.00,East,80,3.0,8.0,55,0.00,,,-99.99,,2013-01-21 03:33:00,
2013-01-20 22:43:00,24.0,11.0,-100.00,East,80,4.0,7.0,55,0.00,,,-99.99,,2013-01-21 03:43:00,
2013-01-20 22:53:00,25.0,11.0,-100.00,ENE,70,4.0,6.0,55,0.00,,,-99.99,,2013-01-21 03:53:00,
2013-01-20 23:03:00,24.0,11.0,-100.00,NE,55,3.0,7.0,55,0.00,,,-99.99,,2013-01-21 04:03:00,
2013-01-20 23:13:00,24.0,11.0,-100.00,NE,35,1.0,6.0,56,0.00,,,-99.99,,2013-01-21 04:13:00,
2013-01-20 23:23:00,24.0,11.0,-100.00,ENE,60,4.0,7.0,56,0.00,,,-99.99,,2013-01-21 04:23:00,
2013-01-20 23:33:00,24.0,11.0,-100.00,ENE,70,3.0,6.0,57,0.00,,,-99.99,,2013-01-21 04:33:00,
2013-01-20 23:43:00,24.0,11.0,-100.00,East,80,4.0,6.0,57,0.00,,,-99.99,,2013-01-21 04:43:00,
2013-01-20 23:53:00,24.0,11.0,-100.00,NE,55,3.0,5.0,57,0.00,,,-99.99,,2013-01-21 04:53:00,